Printer-friendly version

IAU Minor Planet Center

Minor Planet Center

(51) Nemausa

Orbital Elements

The following orbital elements are taken from MPC 31001:
   (51) Nemausa
Epoch 2002 May 6.0 TT = JDT 2452400.5                   Goffin
M 215.92743              (2000.0)            P               Q
n   0.27097882     Peri.    3.06964     -0.99986552     -0.01172275
a   2.3650799      Node   176.20146     +0.00872450     -0.97236534
e   0.0672001      Incl.    9.96833     +0.01388590     -0.23316995
P   3.64           H    7.35          G   0.08           U   0
From 3595 observations at 87 oppositions, 1858-1997, mean residual 0".52.
An explanation of the orbital elements is available.

These orbital elements are also available in forms suitable for loading into a number of popular planetarium-type software programs.


Ephemeris

The following ephemeris is at intervals of five days. A daily ephemeris covering the same time interval is also available.

Date    TT    R. A. (2000) Decl.     Delta      r     Elong.  Phase     V
 
2002 10 13    06 19.77   +11 30.1    1.957    2.405   104.2    23.7    11.9
2002 10 18    06 22.83   +11 01.5    1.895    2.401   108.2    23.2    11.8
2002 10 23    06 25.26   +10 32.3    1.835    2.397   112.4    22.6    11.7
2002 10 28    06 27.02   +10 02.8    1.776    2.394   116.7    21.8    11.6
2002 11 02    06 28.05   +09 33.4    1.720    2.390   121.2    20.8    11.5
2002 11 07    06 28.34   +09 04.4    1.667    2.386   125.8    19.7    11.4
2002 11 12    06 27.85   +08 36.4    1.617    2.383   130.6    18.4    11.3
2002 11 17    06 26.58   +08 09.8    1.571    2.379   135.5    16.9    11.2
2002 11 22    06 24.53   +07 45.3    1.529    2.375   140.4    15.4    11.1
2002 11 27    06 21.75   +07 23.2    1.492    2.372   145.4    13.7    11.0
2002 12 02    06 18.27   +07 04.3    1.460    2.368   150.3    11.9    10.8
2002 12 07    06 14.17   +06 49.0    1.434    2.364   155.0    10.2    10.7
2002 12 12    06 09.58   +06 37.9    1.414    2.360   159.0     8.6    10.6
2002 12 17    06 04.64   +06 31.3    1.401    2.357   162.0     7.4    10.5
2002 12 22    05 59.50   +06 29.5    1.394    2.353   163.1     7.0    10.5
2002 12 27    05 54.34   +06 32.5    1.394    2.349   161.9     7.5    10.5
2003 01 01    05 49.32   +06 40.4    1.401    2.345   159.0     8.6    10.6
2003 01 06    05 44.61   +06 52.9    1.414    2.342   154.9    10.3    10.7
2003 01 11    05 40.38   +07 09.7    1.433    2.338   150.2    12.1    10.8
2003 01 16    05 36.75   +07 30.3    1.458    2.334   145.2    13.9    10.9
2003 01 21    05 33.80   +07 54.2    1.488    2.330   140.2    15.7    11.0
2003 01 26    05 31.61   +08 20.8    1.523    2.327   135.1    17.4    11.1
2003 01 31    05 30.21   +08 49.6    1.562    2.323   130.2    18.9    11.2

Back to Bright Minor Planets

Astronomical Headlines Index


Valid HTML 4.01!